Date String (YYYY-MM-DD hh:mm:ss) UTC,Instrument flags,Ambient pressure (hPa),Sample flow (lpm),Bypass flow (lpm),Sample temperature (°C),Ambient temperature (°C),ASC tube jacket temperature (°C),LED temperature (°C),Box temperature (°C),Sample RH (%),Span deviation,Mass concentration (μg/m³),Mass concentration (μg/m³),Mass concentration (μg/m³)
DateTimeUTC,F1_M11,P_M11,Q1_M11,Q2_M11,T1_M11,T2_M11,T3_M11,T4_M11,T5_M11,U1_M11,ZSPAN_M11,X0_M11,X2_M11,X1_M11
2022-04-18 17:00:00,,0832.7,5.00,0.00,24.2,23.4,00.0,33.0,26.0,10.4,0000.0,0016.94,0004.51,0003.17
2022-04-18 17:01:00,,0832.6,5.00,0.00,24.2,23.4,00.0,33.0,26.0,10.4,0000.0,0016.53,0004.53,0003.17
2022-04-18 17:02:00,,0832.7,5.00,0.00,24.2,23.4,00.0,33.0,26.0,10.4,0000.0,0016.30,0004.54,0003.18
2022-04-18 17:03:00,,0832.7,5.01,0.00,24.2,23.4,00.0,33.0,26.0,10.4,0000.0,0015.62,0004.55,0003.18
2022-04-18 17:04:00,,0832.7,4.99,0.00,24.2,23.4,00.0,33.1,26.0,10.4,0000.0,0014.36,0004.60,0003.18
2022-04-18 17:05:00,,0832.7,5.01,0.00,24.2,23.3,00.0,33.1,26.0,10.4,0000.0,0015.08,0004.66,0003.19
2022-04-18 17:06:00,,0832.7,5.01,0.00,24.2,23.4,00.0,33.1,26.0,10.4,0000.0,0015.31,0004.67,0003.21
2022-04-18 17:07:00,,0832.7,5.00,0.00,24.2,23.3,00.0,33.1,26.0,10.5,0000.0,0015.15,0004.72,0003.22
2022-04-18 17:08:00,,0832.7,5.00,0.00,24.1,23.3,00.0,33.1,26.0,10.6,0000.0,0016.11,0004.81,0003.23
2022-04-18 17:09:00,,0832.7,5.00,0.00,24.1,23.3,00.0,33.0,26.0,10.6,0000.0,0016.86,0004.87,0003.23
2022-04-18 17:10:00,,0832.7,5.01,0.00,24.2,23.4,00.0,33.1,26.0,10.6,0000.0,0016.92,0004.87,0003.24
2022-04-18 17:11:00,,0832.6,4.99,0.00,24.2,23.4,00.0,33.1,26.0,10.6,0000.0,0016.60,0004.87,0003.23
2022-04-18 17:12:00,,0832.5,4.99,0.00,24.2,23.4,00.0,33.1,26.1,10.6,0000.0,0017.01,0004.87,0003.24
2022-04-18 17:13:00,,0832.5,5.00,0.00,24.2,23.5,00.0,33.1,26.1,10.6,0000.0,0017.13,0004.90,0003.24
2022-04-18 17:14:00,,0832.5,5.00,0.00,24.3,23.5,00.0,33.1,26.1,10.6,0000.0,0017.12,0004.90,0003.26
2022-04-18 17:15:00,,0832.5,5.01,0.00,24.3,23.5,00.0,33.1,26.1,10.5,0000.0,0017.48,0004.91,0003.27
2022-04-18 17:16:00,,0832.5,5.00,0.00,24.3,23.5,00.0,33.1,26.2,10.6,0000.0,0017.27,0004.92,0003.28
2022-04-18 17:17:00,,0832.5,5.01,0.00,24.3,23.6,00.0,33.1,26.2,10.5,0000.0,0017.04,0004.92,0003.28
2022-04-18 17:18:00,,0832.5,5.00,0.00,24.3,23.6,00.0,33.1,26.2,10.6,0000.0,0017.56,0004.82,0003.29
2022-04-18 17:19:00,,0832.5,4.99,0.00,24.3,23.6,00.0,33.2,26.2,10.6,0000.0,0017.76,0004.74,0003.29
2022-04-18 17:20:00,,0832.5,5.00,0.00,24.3,23.6,00.0,33.2,26.2,10.4,0000.0,0017.84,0004.71,0003.29
2022-04-18 17:21:00,,0832.5,5.00,0.00,24.3,23.6,00.0,33.2,26.2,10.4,0000.0,0017.97,0004.71,0003.29
2022-04-18 17:22:00,,0832.5,5.01,0.00,24.3,23.5,00.0,33.2,26.2,10.4,0000.0,0018.56,0004.70,0003.29
2022-04-18 17:23:00,,0832.5,5.00,0.00,24.3,23.5,00.0,33.2,26.2,10.4,0000.0,0018.10,0004.70,0003.28
2022-04-18 17:24:00,,0832.5,5.01,0.00,24.4,23.6,00.0,33.2,26.2,10.4,0000.0,0018.20,0004.64,0003.29
2022-04-18 17:25:00,,0832.5,5.00,0.00,24.4,23.6,00.0,33.2,26.3,10.7,0000.0,0019.08,0004.63,0003.27
2022-04-18 17:26:00,,0832.5,4.99,0.00,24.4,23.6,00.0,33.2,26.3,10.5,0000.0,0018.69,0004.65,0003.27
2022-04-18 17:27:00,,0832.5,5.00,0.00,24.4,23.6,00.0,33.2,26.3,10.5,0000.0,0018.24,0004.61,0003.26
2022-04-18 17:28:00,,0832.4,5.01,0.00,24.4,23.7,00.0,33.2,26.3,10.4,0000.0,0018.31,0004.63,0003.25
2022-04-18 17:29:00,,0832.4,5.01,0.00,24.4,23.7,00.0,33.2,26.3,10.6,0000.0,0018.20,0004.70,0003.23
2022-04-18 17:30:00,,0832.3,5.00,0.00,24.4,23.7,00.0,33.3,26.3,10.4,0000.0,0017.24,0004.73,0003.23
2022-04-18 17:31:00,,0832.4,4.98,0.00,24.4,23.7,00.0,33.3,26.3,10.6,0000.0,0016.69,0004.77,0003.23
2022-04-18 17:32:00,,0832.4,5.00,0.00,24.4,23.7,00.0,33.3,26.3,10.4,0000.0,0016.55,0004.76,0003.23
2022-04-18 17:33:00,,0832.4,5.01,0.00,24.4,23.7,00.0,33.3,26.3,10.5,0000.0,0015.85,0004.77,0003.24
2022-04-18 17:34:00,,0832.3,5.00,0.00,24.4,23.6,00.0,33.3,26.3,10.5,0000.0,0016.52,0004.78,0003.25
2022-04-18 17:35:00,,0832.4,5.00,0.00,24.4,23.6,00.0,33.3,26.2,10.5,0000.0,0017.41,0004.79,0003.25
2022-04-18 17:36:00,,0832.4,5.00,0.00,24.4,23.6,00.0,33.3,26.3,10.5,0000.0,0018.16,0004.80,0003.26
2022-04-18 17:37:00,,0832.3,5.00,0.00,24.4,23.6,00.0,33.3,26.3,10.5,0000.0,0018.60,0004.81,0003.26
2022-04-18 17:38:00,,0832.2,5.00,0.00,24.4,23.7,00.0,33.3,26.3,10.6,0000.0,0019.25,0004.83,0003.27
2022-04-18 17:39:00,,0832.3,5.00,0.00,24.4,23.7,00.0,33.3,26.3,10.5,0000.0,0019.77,0004.81,0003.28
2022-04-18 17:40:00,,0832.3,5.01,0.00,24.5,23.7,00.0,33.3,26.3,10.6,0000.0,0019.32,0004.78,0003.29
2022-04-18 17:41:00,,0832.3,5.00,0.00,24.5,23.7,00.0,33.3,26.3,10.5,0000.0,0019.10,0004.80,0003.29
2022-04-18 17:42:00,,0832.3,5.00,0.00,24.5,23.7,00.0,33.3,26.3,10.6,0000.0,0019.16,0004.80,0003.31
2022-04-18 17:43:00,,0832.3,5.00,0.00,24.5,23.7,00.0,33.4,26.4,10.6,0000.0,0019.78,0004.86,0003.32
2022-04-18 17:44:00,,0832.2,4.99,0.00,24.5,23.8,00.0,33.4,26.4,10.6,0000.0,0019.58,0004.90,0003.34
2022-04-18 17:45:00,,0832.2,5.00,0.00,24.6,23.8,00.0,33.4,26.4,10.8,0000.0,0019.83,0004.89,0003.35
2022-04-18 17:46:00,,0832.1,5.02,0.00,24.6,23.8,00.0,33.4,26.5,10.9,0000.0,0019.16,0004.94,0003.34
2022-04-18 17:47:00,,0832.2,4.98,0.00,24.6,23.8,00.0,33.4,26.4,10.6,0000.0,0017.57,0004.96,0003.35
2022-04-18 17:48:00,,0832.1,4.99,0.00,24.6,23.9,00.0,33.4,26.5,10.5,0000.0,0017.88,0004.89,0003.35
2022-04-18 17:49:00,,0832.1,5.01,0.00,24.6,23.9,00.0,33.4,26.5,10.5,0000.0,0017.21,0004.81,0003.35
2022-04-18 17:50:00,,0832.1,4.99,0.00,24.7,23.9,00.0,33.4,26.6,10.5,0000.0,0016.49,0004.84,0003.35
2022-04-18 17:51:00,,0832.1,5.00,0.00,24.7,23.9,00.0,33.5,26.6,10.4,0000.0,0016.21,0004.83,0003.36
2022-04-18 17:52:00,,0832.2,5.00,0.00,24.7,24.0,00.0,33.5,26.6,10.7,0000.0,0016.60,0004.84,0003.36
2022-04-18 17:53:00,,0832.1,5.01,0.00,24.7,24.0,00.0,33.5,26.6,10.4,0000.0,0017.19,0004.93,0003.36
2022-04-18 17:54:00,,0832.1,5.00,0.00,24.7,23.9,00.0,33.5,26.6,10.4,0000.0,0017.16,0004.94,0003.37
2022-04-18 17:55:00,,0832.1,5.00,0.00,24.7,23.9,00.0,33.5,26.6,10.3,0000.0,0017.00,0004.94,0003.37
2022-04-18 17:56:00,,0832.1,5.00,0.00,24.7,23.9,00.0,33.5,26.6,10.3,0000.0,0016.83,0004.92,0003.38
2022-04-18 17:57:00,,0832.1,5.00,0.00,24.7,24.0,00.0,33.5,26.6,10.3,0000.0,0017.15,0004.89,0003.39
2022-04-18 17:58:00,,0832.1,5.00,0.00,24.7,24.0,00.0,33.6,26.6,10.3,0000.0,0016.89,0004.87,0003.41
2022-04-18 17:59:00,,0832.1,5.00,0.00,24.7,24.0,00.0,33.6,26.6,10.3,0000.0,0017.44,0004.88,0003.42
